Погода в Помпеи

Италия     40°45′03″N   14°29′19″E
темп.,
°C
ветер,
м/с
пор.,
м/с
влажн.,
%
обл.,
%
осадки,
мм/ч
давл.,
гПа
погр.,
м
15 июня, вт
вт1523:00+22св23480 0.1 1016222
02:00+20св34430 0.1 1016155
05:00+18всв34440 0.0 1016150
08:00+21всв48330 0.0 1017837
11:00+25св25290 0.0 10181325
14:00+28с25220 0.0 10172017
17:00+26з46330 0.0 10161580
20:00+23зсз23424 0.0 1016403
16 июня, ср
ср1623:00+22зюз01505 0.0 101719
02:00+20з1162100 0.0 101760
05:00+19ююв1167100 0.0 101686
08:00+21вюв1160100 0.0 1017296
11:00+25юз2247100 0.0 1017919
14:00+25юз4356100 0.0 10161044
17:00+24зюз2260100 0.0 1016701
20:00+23з2266100 0.0 1016380
17 июня, чт
чт1723:00+22зсз017299 0.0 101639
02:00+21ююв118083 0.0 101663
05:00+20ююв1186100 0.0 101651
08:00+22зсз11645 0.0 1017385
11:00+26зюз114845 0.0 1017888
14:00+27юз434797 0.0 10171029
17:00+25зюз2249100 0.0 1017721
20:00+25ссз114863 0.0 1017433
18 июня, пт
пт1823:00+23зюз1159100 0.0 101826
02:00+22св116487 0.0 101813
05:00+21ю116679 0.0 101815
08:00+23сз125855 0.0 1019315
11:00+28з33456 0.0 1018925
14:00+29зюз33396 0.0 10171138
17:00+28зюз334214 0.0 1017584
20:00+26зсз33505 0.0 1017397
19 июня, сб
сб1923:00+24ссз11525 0.0 101862
02:00+23вюв11555 0.0 101711
05:00+22зюз22645 0.0 101733
08:00+24юз1156100 0.0 1018224
11:00+29з11405 0.0 1017654
14:00+31зюз333950 0.0 10161008
17:00+28з4444100 0.0 1016477
20:00+27сз1246100 0.0 1016319